Regional Weather Roundup
Issued by NWS Wakefield, VA

Home | Current Version | Previous Version | Text Only | Print | Product List | Glossary Off
Versions: 1 2 3 4 5 6 7 8 9 10 11 12 13 14 15 16 17 18 19 20 21 22 23 24 25 26 27
000 ASUS41 KAKQ 232316 RWRAKQ REGIONAL WEATHER ROUNDUP NATIONAL WEATHER SERVICE WAKEFIELD VA 700 PM EDT MON MAY 23 2022 Note: "fair" indicates few or no clouds below 12,000 feet with no significant weather and/or obstructions to visibility. * = Denotes station may not report precipitation (e.g., rain,snow,etc.), thunder or fog. VAZ042-051-052>054-056-240000- NORTHERN VIRGINIA CITY SKY/WX TMP DP RH WIND PRES REMARKS WASH NATIONAL CLOUDY 70 50 49 N15 30.17F DULLES CLOUDY 68 48 48 N12 30.18F FORT BELVOIR PTSUNNY 69 50 50 N5 30.17R QUANTICO PTSUNNY 65 58 78 W5 30.18R FREDERICKSBRG* CLOUDY 64 56 75 W3 30.19R STAFFORD* PTSUNNY 64 58 83 CALM 30.23R WARRENTON CLOUDY 65 57 75 CALM 30.19R CULPEPER* CLOUDY 64 58 83 NW3 30.21R MANASSAS* LGT RAIN 68 51 54 N8 30.18S LEESBURG* CLOUDY 66 50 55 NE10G16 30.21S WINCHESTER CLOUDY 61 50 67 NE5 30.20S FRONT ROYAL* CLOUDY 61 54 77 CALM 30.20S LURAY* LGT RAIN 59 54 82 CALM 30.21S $$ VAZ048-049-060>072-079>083-240000- CENTRAL AND SOUTH CENTRAL VIRGINIA CITY SKY/WX TMP DP RH WIND PRES REMARKS RICHMOND LGT RAIN 67 58 72 N9 30.19R CHESTERFIELD* NOT AVBL PETERSBURG* RAIN 68 63 85 N3 30.18R HANOVER LGT RAIN 64 59 83 VRB3 30.21R TAPPAHANNOCK* PTSUNNY 68 59 72 CALM 30.20R QUINTON* CLOUDY 68 55 62 CALM 30.18R CHARLOTTSVILLE LGT RAIN 61 55 81 E5 30.21R GORDONSVILLE* CLOUDY 60 57 91 CALM 30.21R ORANGE* LGT RAIN 59 57 94 CALM 30.22R LOUISA* LGT RAIN 60 55 84 N5 30.22R BUMPASS* CLOUDY 61 57 88 NW6 30.21R FARMVILLE* LGT RAIN 59 58 97 NE9 30.15F CREWE* CLOUDY 61 58 91 N3 30.17F FORT PICKETT* CLOUDY 64 63 99 N6 30.17F CHASE CITY* FAIR 65 65 100 NE3 30.11F CLARKSVILLE* FAIR 64 64 100 NE9G18 30.09F SOUTH HILL* CLOUDY 65 63 93 NE5 30.17F LAWRENCEVILLE* CLOUDY 67 65 96 CALM 30.17F EMPORIA* RAIN 66 65 96 CALM 30.18F $$ VAZ088>098-240000- SOUTHEAST VIRGINIA CITY SKY/WX TMP DP RH WIND PRES REMARKS NORFOLK PTSUNNY 64 55 72 NE8 30.18R VIRGINIA BEACH CLOUDY 66 43 43 E7 30.17R NORFOLK NAVAL PTSUNNY 65 55 70 E9 30.20R WEST POINT* CLOUDY 68 57 68 E3 30.19R SALUDA* CLOUDY 68 59 72 SE5 30.18R NEWPORT NEWS PTSUNNY 65 55 70 E7 30.19R LANGLEY AFB PTSUNNY 65 59 81 E8 30.18R FORT EUSTIS DRIZZLE 66 55 68 VRB7 30.19R WILLIAMSBURG* PTSUNNY 70 59 68 E5 30.20R HR EXEC AP* CLOUDY 66 58 75 NE3 30.19R FRANKLIN* LGT RAIN 66 57 72 NE3 30.19R US460-WAKEFLD LGT RAIN 66 60 81 E3 30.19R $$ VAZ020-022-025-037-045-240000- WEST CENTRAL AND SOUTHWEST VIRGINIA CITY SKY/WX TMP DP RH WIND PRES REMARKS STAUNTON* CLOUDY 56 54 92 NE7 30.24R WAYNESBORO* CLOUDY 56 55 95 N9G20 30.21F HOT SPRINGS VA RAIN 52 52 100 E12 30.21S VSB<1/4 LYNCHBURG LGT RAIN 59 56 89 N12G17 30.16F FOG DANVILLE CLOUDY 63 60 90 NE13 30.10F SOUTH BOSTON* CLOUDY 64 63 95 NE7 30.11R MARTINSVILLE HVY RAIN 60 60 98 NE7 30.15S ROANOKE LGT RAIN 60 57 89 NE10 30.17F BLACKSBURG HVY RAIN 59 59 100 E8G17 30.16F DUBLIN* RAIN 58 58 100 E8 30.13F MARION* RAIN 62 61 97 E6 30.12S HILLSVILLE* RAIN 60 59 97 E9 30.10S RICHLANDS* RAIN N/A N/A N/A NE6 30.10S WISE* DRIZZLE 59 59 100 NE8 30.10F ABINGDON* HVY RAIN 63 63 100 E9 30.06S $$ MDZ021>025-VAZ099-100-240000- SOUTHERN MARYLAND AND THE DELMARVA PENINSULA CITY SKY/WX TMP DP RH WIND PRES REMARKS PATUXENT RIVER CLOUDY 71 52 50 N8 30.16F BAY BRIDGE APT PTSUNNY 69 56 64 NW3 30.18F LEONARDTOWN CLOUDY 68 52 56 CALM 30.17S DOVER PTSUNNY 67 56 67 E7 30.16R GEORGETOWN PTSUNNY 68 55 63 SE7 30.17R EASTON SUNNY 70 55 60 N5 30.21F CAMBRIDGE NOT AVBL SALISBURY MOSUNNY 70 56 61 SE6 30.16S TANGIER MOCLDY 70 54 57 SE6 30.17R OCEAN CITY MOSUNNY 64 54 69 E6 30.17S WALLOPS ISLAND PTSUNNY 66 51 58 NE10 30.18R ACCOMACK* PTSUNNY 62 46 56 E6 30.18R $$ NCZ012>017-030>032-240000- NORTH CENTRAL AND EASTERN NORTH CAROLINA CITY SKY/WX TMP DP RH WIND PRES REMARKS ROANOKE RAPIDS RAIN 64 64 100 E8 30.13F RALEIGH PTSUNNY 71 67 87 E7 30.08F ELIZABETH CITY PTSUNNY 66 57 72 E12 30.17R AHOSKIE* HVY RAIN 67 67 99 NE3 30.17R EDENTON* LGT RAIN 70 65 85 E8 30.16R CURRITUCK* PTSUNNY 65 55 70 NE10 30.17R KILL DEVIL HLS PTSUNNY 63 55 76 NE6 30.15R MANTEO PTSUNNY 63 56 78 NE13 30.17R CAPE HATTERAS PTSUNNY 72 63 73 E6 30.14R TARBORO* RAIN 67 66 95 E8 30.14F FOG GOLDSBORO PTSUNNY 74 71 89 N6 30.07R WASHINGTON HVY RAIN 69 66 90 NE6 30.14S GREENVILLE CLOUDY 70 70 100 E6 30.12R NEW BERN CLOUDY 73 70 88 E10 30.11 WILMINGTON PTSUNNY 83 68 60 SW13 30.05S $$ VAZ048-240000- ELSEWHERE CITY SKY/WX TMP DP RH WIND PRES REMARKS HARRISBURG PA CLOUDY 66 43 43 NW5 30.20F BALTIMORE CLOUDY 70 49 47 VRB7 30.16F ANNAPOLIS CLOUDY 70 54 56 CALM 30.17F ANDREWS AFB PTSUNNY 67 52 59 N7 30.14F PHILADELPHIA PTSUNNY 75 46 35 N9 30.16S HENDERSON NC CLOUDY 65 65 99 NE8 30.09S GREENSBORO LGT RAIN 64 62 93 NE16 30.07F ROCKY MOUNT CLOUDY 69 66 90 NE8 30.12F $$ VAZ100-240000- MARINE STATION/POSITION TIME TEMP WIND PRES WAVE SWELL AIR SEA DIR/SP/G HT/PER HT/PER (UTC) (F) (DEG/KT/KT) (MB) (FT/S) (FT/S) CAPE MAY NJ 2224 63 62 100/ 8/ 10 1021.6 LEWES DE 2224 64 65 140/ 7/ 9 1021.8 15NM E FENWICK I 2250 63 62 60/ 6/ 8 1022.2R 3/ 5 2/ 5 OCEAN-CITY-INLET 2224 63 56 100/ 5/ 7 1022.8 44089 WALLOPS IS 2256 61 N/A 3/11 WACHAPREAGUE VA 2224 65 76 60/ 11/ 13 1021.5 THOMAS POINT MD 2300 69 69 10/ 6/ 6 1022.6F GOOSES REEF MD 2248 67 69 20/ 12/ 17 1022.4F COVE POINT MD 2224 69 320/ 15/ 17 1021.0 SOLOMONS ISLAND 2224 68 69 360/ 9/ 11 1019.6 BISHOPS HEAD MD 2224 72 79 350/ 9/ 15 1021.0 PINEY POINT MD 2230 40/ 8/ 10 N/A POTOMAC MD 2242 67 71 360/ 8/ 10 N/A CAMBRIDGE MD 2224 71 75 330/ 12/ 15 1021.3 LEWISETTA VA 2224 70 73 20/ 9/ 13 1021.3 STINGRAY PT 2248 66 70 140/ 6/ 8 N/A YORK RVR RNG VA 2224 67 110/ 11/ 12 N/A YORKTOWN VA 2224 67 71 110/ 11/ 13 1021.5 JAMESTOWN VA 2242 67 100/ 10/ 14 N/A DOMINION TERM VA 2224 66 40/ 3/ 6 1022.1 KIPTOPEKE VA 2224 71 90/ 11/ 16 N/A CHES BAY BRIDGE 2224 63 90/ 9/ 11 1020.7 CAPE HENRY VA 2224 63 80/ 12/ 13 1021.9 WILLOUBY STN VA 2224 64 100/ 11/ 13 1021.4 S CRANEY ISL VA 2224 65 60/ 10/ 11 1021.4 CAPE HENRY BUOY 2256 64 N/A 3/ 5 1ST LANDING BUOY 2242 61 70/ 6/ 10 1023.9R 64NM E OF VA BCH 2250 30/ 14/ 16 1020.1R 4/ 5 2/10 DUCK PIER NC 2224 63 63 50/ 16/ 19 1020.6 44100 DUCK FRF 2256 65 N/A 4/ 5 44056 DUCK FRF 2256 63 N/A 4/ 5 OREGON INLET NC 2218 65 82 40/ 9/ 14 1020.6 HATTERAS NC 2224 70 78 70/ 10/ 13 1020.6 DIAMOND SHLS NC 2250 78 50/ 12/ 14 1020.1R CAPE LOOKOUT NC 2200 74 70/ 11/ 12 1019.7S $$

USA.gov is the U.S. government's official web portal to all federal, state and local government web resources and services.